Temperature
28 28 28 29 30 30 30 30 30 31 32 32 31 30 31 31 30 30 29 28 27 26 25 24 23 22 22 21 20 20 19 19 19 19 18 18 18 18 18 18 17 17 17 17
29 28 29 30 31 30 30 30 30 31 32 31 30 30 31 31 30 29 29 29 27 26 25 24 23 22 22 21 20 20 19 19 19 18 18 18 18 18 18 18 17 17 17 17
28 30 31 30 30 30 30 30 30 30 31 31 30 29 30 30 30 29 29 29 28 26 25 24 23 22 22 21 20 20 19 19 19 18 18 18 18 18 18 18 17 17 17 17
29 30 30 30 30 30 29 31 31 30 30 29 30 28 29 30 30 30 29 29 28 27 25 24 23 22 22 21 20 20 19 19 19 18 18 18 18 18 18 18 17 17 17 17
29 30 30 29 30 30 30 31 30 30 29 29 29 29 29 29 29 29 29 29 28 27 25 24 23 22 22 21 20 19 19 19 18 18 18 18 18 18 17 17 17 17 17 17
29 31 30 30 31 31 30 30 30 29 29 27 28 28 27 29 28 28 29 28 28 27 26 24 23 22 22 21 20 19 19 19 18 18 18 18 18 17 17 17 17 17 17 17
28 29 31 30 29 30 30 28 27 26 26 27 28 28 27 29 29 29 29 28 27 27 26 24 23 22 21 21 20 19 19 19 18 18 18 18 18 17 17 17 17 17 17 16
27 28 29 30 29 28 29 28 26 25 25 27 28 27 28 29 30 29 29 28 27 26 26 24 23 22 21 21 20 19 19 18 18 18 18 18 18 17 17 17 17 17 17 17
27 28 30 30 30 29 28 28 28 27 27 27 27 28 28 29 29 29 28 28 27 26 25 24 23 22 22 21 20 20 19 18 18 18 18 18 18 17 17 17 17 17 16 16
27 26 29 30 30 30 29 29 28 27 25 25 27 27 27 27 27 28 28 27 26 25 24 23 22 22 21 21 20 20 19 18 18 18 18 17 17 17 17 16 16 16 16 16
27 26 27 28 28 28 28 28 27 27 26 25 25 26 27 26 27 27 27 27 25 25 24 23 22 21 21 21 20 19 19 18 18 17 17 17 17 17 17 16 16 16 16 16
27 26 25 27 28 29 28 27 27 25 25 25 25 26 27 26 27 27 26 26 25 24 23 22 21 21 20 20 20 19 19 18 18 17 17 17 17 17 16 16 16 16 16 16
25 24 23 25 26 27 27 27 27 26 25 25 24 25 26 26 26 25 25 25 24 23 22 22 21 20 20 20 20 19 19 18 18 17 17 17 17 16 16 16 16 16 16 16
24 24 23 23 24 25 25 26 26 26 25 24 24 24 25 25 25 24 24 23 23 22 21 21 20 19 19 19 19 19 18 18 18 17 17 17 16 16 16 16 16 16 16 15
24 23 24 25 26 26 25 25 26 25 25 25 25 25 24 24 24 24 23 23 22 22 21 20 19 19 19 18 18 18 18 18 17 17 16 16 16 16 16 16 16 15 15 15
23 22 23 23 25 25 25 25 25 25 25 25 25 25 25 24 24 23 22 22 22 21 20 19 19 18 18 18 18 17 17 17 17 17 16 16 16 15 15 15 15 15 15 15
22 21 21 22 24 23 23 25 25 25 25 25 24 24 24 24 23 22 22 21 21 21 20 19 18 18 17 17 17 17 17 16 16 16 16 16 16 15 15 15 15 15 15 15
21 21 21 21 22 21 23 26 26 25 25 25 24 24 24 23 22 22 21 21 20 20 19 19 18 17 17 17 16 16 16 16 16 16 16 15 15 15 15 15 15 15 15 15
22 21 20 21 20 21 23 24 25 24 23 24 24 23 23 23 22 21 20 20 20 19 18 18 17 17 17 16 16 16 16 15 15 15 15 15 15 15 15 15 15 15 15 14
23 22 20 20 20 20 21 23 23 24 22 23 23 22 22 22 22 20 20 19 19 19 18 17 17 17 16 16 15 15 15 15 15 15 15 15 15 14 14 14 14 14 14 14
20 20 20 20 19 19 21 22 22 21 20 21 21 21 21 21 20 19 18 18 18 18 17 17 16 16 15 15 15 15 15 15 15 15 14 14 14 14 14 14 14 14 14 14
19 19 19 19 19 18 19 20 20 19 19 20 20 19 19 19 18 18 18 18 17 17 16 16 16 15 15 15 14 14 14 14 14 14 14 14 14 14 14 14 13 13 13 13
19 19 18 18 18 18 18 18 18 18 19 18 18 18 18 18 18 18 17 17 17 16 16 16 15 15 15 14 14 14 14 14 14 14 14 14 13 13 13 13 13 13 13 13
19 19 19 18 18 18 17 17 18 18 18 18 18 18 18 17 18 17 17 16 16 15 15 15 15 14 14 14 14 14 13 13 13 13 13 13 13 13 13 13 13 13 13 13
18 18 18 17 17 17 17 17 17 17 17 17 17 17 17 17 17 17 16 16 16 15 15 14 14 14 14 13 13 13 13 13 13 13 13 13 13 13 13 13 13 13 13 13
18 17 17 17 17 17 16 16 17 17 17 16 16 16 16 16 16 16 16 15 15 14 14 14 14 13 13 13 13 13 13 13 12 12 12 12 12 12 12 12 12 12 12 12
Wind_Speed
13 14 13 13 15 14 13 12 12 11 9 10 11 11 12 11 10 9 11 12 11 10 10 10 10 10 11 10 9 7 7 6 4 3 3 3 3 2 2 3 4 4 3 3
13 16 15 14 14 14 15 13 12 10 9 9 10 11 10 10 12 10 11 12 13 12 11 10 9 9 10 10 9 8 7 6 5 4 3 3 3 3 3 2 4 4 3 3
17 11 12 14 15 14 14 13 12 12 11 10 11 13 12 11 11 11 10 11 13 13 13 12 10 9 10 11 10 8 7 7 5 5 3 2 2 2 2 3 3 3 4 4
14 13 11 12 14 14 13 12 12 13 12 11 12 12 13 13 12 13 12 12 12 13 14 13 12 10 10 11 11 9 8 7 6 5 4 4 4 3 3 3 3 3 4 4
13 12 13 14 13 13 13 10 11 13 14 14 14 13 10 10 11 11 11 11 11 12 14 13 13 11 10 10 12 10 9 7 6 6 5 4 3 3 3 3 4 3 4 4
16 13 12 13 13 12 11 11 13 13 13 16 15 13 10 9 11 11 10 10 10 11 12 12 11 10 9 10 11 11 10 8 7 6 6 5 5 4 4 4 4 3 3 3
16 16 14 11 13 12 12 10 9 10 11 14 12 12 9 8 11 12 12 11 11 10 11 12 12 12 10 10 10 11 10 9 8 7 6 5 5 5 5 4 4 4 3 3
13 12 13 12 12 11 12 13 11 10 11 11 11 10 8 7 7 9 10 10 10 9 10 10 11 11 11 10 9 9 10 9 9 8 7 5 5 4 4 4 3 4 3 3
10 9 9 11 12 13 13 13 14 13 14 13 10 9 7 5 6 7 7 7 8 7 7 7 7 7 8 9 9 9 9 9 8 8 7 6 5 5 4 4 4 3 3 4
10 11 10 8 10 14 14 13 9 10 10 12 11 10 7 7 7 7 8 7 6 6 7 7 6 7 7 7 7 8 9 8 8 8 7 7 6 5 4 4 4 3 4 3
10 10 11 10 11 11 11 12 11 10 10 11 10 5 2 4 4 5 5 6 7 6 6 6 5 5 6 7 7 7 8 8 7 7 6 5 5 5 5 5 4 4 4 4
7 8 11 12 10 10 11 11 10 9 9 10 10 6 3 3 4 4 3 5 7 6 5 6 5 4 3 5 6 6 7 8 7 6 6 6 5 5 5 5 4 4 4 4
5 6 9 11 10 10 10 10 10 9 8 10 11 6 2 3 4 5 4 5 6 6 4 4 5 4 2 3 5 6 6 7 8 7 7 6 6 6 6 5 4 4 4 3
5 8 12 13 9 7 9 11 12 11 10 10 11 8 4 1 3 3 4 4 5 5 4 5 5 4 2 2 3 5 5 5 6 7 7 7 6 5 5 5 5 4 4 4
6 11 14 16 15 12 11 12 13 12 12 12 10 9 4 2 3 3 5 4 3 4 5 5 5 4 2 3 3 3 4 4 5 7 6 6 5 5 5 5 5 4 4 4
5 9 13 15 15 14 15 14 13 14 13 13 10 7 2 4 3 3 4 3 3 4 4 4 5 5 4 3 3 3 3 4 5 6 5 5 5 5 5 5 5 4 4 3
6 8 11 14 13 13 16 13 12 11 11 11 8 3 2 4 4 3 3 4 3 4 4 3 4 5 4 4 3 3 2 3 5 5 5 5 5 5 4 4 4 4 3 3
10 9 8 11 11 14 10 8 9 8 6 5 3 2 1 3 4 3 3 3 4 3 3 3 4 5 5 4 4 3 3 3 4 4 4 4 4 4 3 3 3 3 2 2
10 9 8 8 11 13 10 7 7 6 4 1 1 1 2 3 4 4 4 3 4 4 4 3 3 5 5 4 4 3 3 3 3 3 3 4 4 3 3 3 3 2 2 2
9 9 9 9 10 10 4 7 8 6 4 2 2 1 0 1 2 2 4 4 3 4 4 3 3 5 4 3 3 3 3 2 2 2 3 2 3 3 3 3 3 2 2 2
7 8 10 11 10 6 6 9 7 4 1 4 4 4 2 1 2 3 3 4 4 4 4 4 3 4 4 3 3 2 2 1 1 2 2 2 2 3 3 3 2 3 3 2
6 6 7 8 9 5 7 6 4 3 3 4 4 4 4 3 4 3 3 3 3 3 4 4 3 3 3 3 3 2 2 1 1 2 2 2 2 3 3 3 3 3 3 3
3 3 3 2 2 1 4 3 3 3 4 4 4 4 4 3 2 2 2 3 3 3 3 3 3 3 3 3 3 3 2 1 2 2 2 2 2 2 2 4 4 4 4 4
3 4 4 2 1 2 3 4 4 4 4 4 4 4 4 3 1 1 1 2 3 3 2 2 2 3 2 2 2 2 2 2 2 2 2 3 3 3 3 3 4 4 4 4
5 4 5 4 3 3 3 4 4 4 3 3 4 3 2 2 1 1 1 2 2 3 2 2 1 2 2 2 2 2 2 2 2 3 3 3 4 4 3 2 2 2 1 1
4 4 4 4 3 3 4 5 5 4 2 2 3 3 3 3 2 1 0 2 2 2 2 2 1 2 1 1 2 2 2 2 2 3 3 4 4 4 4 3 2 1 1 2
Wind_Direction
216 226 230 231 234 246 261 271 267 255 231 227 232 228 216 202 202 199 185 176 173 171 165 158 158 160 152 144 147 148 148 146 153 155 176 178 171 172 154 146 135 140 150 147
225 227 233 239 242 243 252 259 261 257 245 234 238 238 229 213 202 207 193 178 172 172 165 159 163 166 157 152 154 153 153 154 165 167 182 181 175 172 158 143 135 145 157 156
234 234 229 236 242 247 249 252 257 260 248 235 238 239 228 220 210 208 202 188 178 176 170 167 169 170 165 161 160 165 161 161 174 167 173 185 162 169 144 138 141 152 161 163
242 245 238 239 245 249 253 251 258 259 259 250 239 242 223 210 212 201 200 188 179 176 171 172 175 175 173 167 163 161 159 161 170 164 176 180 169 178 169 165 150 160 157 152
246 241 241 242 245 245 255 265 262 261 260 262 247 248 235 202 212 209 203 190 178 179 172 172 176 174 173 167 165 165 161 165 171 173 173 183 183 179 160 151 139 157 154 154
258 252 239 242 247 248 252 257 257 255 255 252 250 248 242 221 210 205 199 194 180 177 168 167 170 163 168 166 166 162 161 166 170 176 180 189 188 174 158 160 155 167 158 156
247 245 235 234 245 237 239 245 250 246 242 247 249 246 236 226 211 196 189 186 180 174 168 168 171 167 173 170 164 162 165 170 174 180 184 190 197 185 172 177 166 166 162 157
248 240 227 223 230 243 237 238 241 250 252 257 247 237 227 212 206 182 177 179 172 174 168 168 171 167 171 168 164 162 167 171 175 180 183 186 190 192 188 180 176 172 169 163
266 255 231 221 220 233 242 242 250 260 266 263 246 236 211 190 200 170 169 172 168 170 164 160 159 156 165 167 165 162 163 169 173 179 181 182 182 191 190 172 172 172 165 170
270 280 260 239 231 229 240 249 250 255 263 265 253 239 220 187 200 187 179 172 160 159 154 156 156 155 164 158 157 159 159 165 172 178 185 182 181 182 178 174 173 170 161 158
270 272 267 248 235 243 240 244 250 257 260 263 267 259 160 138 164 175 171 162 153 156 149 141 140 153 155 151 155 158 155 159 167 174 176 175 168 170 171 174 170 163 158 164
271 274 272 265 256 258 248 250 247 250 259 269 271 267 77 105 160 140 149 143 136 130 128 137 140 136 151 157 157 152 158 163 166 164 164 160 154 161 166 167 161 156 161 170
300 271 267 260 247 242 247 249 255 253 259 260 263 257 92 114 115 112 105 107 118 118 124 130 129 132 151 162 155 151 156 162 159 155 153 155 161 165 166 162 159 161 168 174
277 262 260 264 272 257 259 257 255 251 253 250 252 251 248 138 113 111 103 105 118 123 126 123 124 128 140 120 123 136 144 144 150 149 154 155 162 164 164 162 165 171 170 175
271 261 262 269 277 270 260 259 256 252 256 258 254 245 240 198 147 129 115 115 131 139 134 132 134 130 127 110 99 114 130 140 146 149 156 157 159 160 166 168 171 174 175 178
257 275 277 273 271 273 268 254 248 250 253 257 259 257 173 151 118 115 124 147 148 142 142 140 140 135 136 123 116 111 120 134 136 139 146 151 154 158 166 169 168 168 172 167
255 263 272 272 270 271 262 261 251 246 247 252 256 247 205 139 122 132 148 157 147 140 136 129 133 128 116 109 105 115 128 132 142 143 143 147 146 154 166 171 160 164 164 158
253 262 267 271 273 262 266 271 267 260 253 247 232 230 275 122 117 104 119 133 134 130 127 120 114 118 112 106 101 96 103 112 134 130 131 134 135 138 138 135 140 143 157 167
234 243 256 262 260 259 261 277 281 263 256 339 167 195 238 136 128 111 87 99 115 111 103 101 109 122 120 121 122 121 120 123 126 134 138 139 137 145 152 146 144 143 154 171
235 230 240 257 262 264 289 331 323 283 235 17 9 33 352 166 224 117 76 73 94 107 107 107 124 120 110 111 121 125 136 141 146 144 146 143 144 158 162 161 167 164 174 188
236 238 241 255 257 260 318 324 312 262 294 6 16 11 14 11 35 81 75 65 75 93 108 117 120 118 118 131 131 143 147 175 175 144 141 152 161 169 170 169 176 183 208 200
244 245 244 255 256 255 351 341 358 18 10 15 11 4 30 53 70 92 98 94 98 100 118 128 127 127 126 135 150 165 176 191 178 161 159 159 181 203 184 170 191 202 215 211
261 286 280 258 257 20 14 5 352 12 16 18 8 11 21 26 51 89 121 128 135 126 128 130 134 138 142 156 182 192 189 184 179 174 176 175 194 207 192 197 203 208 214 226
297 297 272 261 241 304 337 339 355 10 13 15 12 10 5 337 13 75 117 125 128 127 135 142 147 141 154 182 205 195 183 182 185 194 197 195 197 203 201 210 215 213 221 230
305 299 286 279 299 311 335 336 333 352 13 3 358 351 342 322 357 42 105 118 125 129 140 147 156 167 191 204 209 194 169 174 200 208 209 212 208 198 192 211 252 237 250 249
301 292 292 297 313 300 314 319 314 311 323 343 332 327 334 331 336 347 104 120 125 141 149 157 189 197 206 215 215 192 178 186 208 219 216 221 214 201 203 205 218 29 186 154
Height
1472 1474 1471 1467 1464 1464 1463 1465 1465 1458 1453 1458 1462 1465 1463 1465 1468 1472 1475 1480 1485 1490 1494 1497 1500 1503 1505 1506 1508 1511 1513 1515 1517 1519 1520 1522 1524 1525 1526 1527 1527 1528 1529 1530
1469 1469 1463 1461 1459 1461 1462 1465 1464 1458 1453 1457 1462 1463 1460 1462 1465 1469 1472 1477 1482 1487 1492 1495 1498 1500 1503 1504 1507 1509 1511 1513 1515 1517 1519 1521 1523 1524 1525 1526 1527 1528 1528 1529
1465 1459 1456 1458 1459 1461 1461 1463 1463 1462 1455 1454 1462 1466 1462 1460 1462 1467 1470 1474 1478 1483 1488 1492 1495 1498 1501 1503 1505 1507 1509 1511 1513 1515 1518 1520 1521 1523 1524 1525 1526 1526 1527 1528
1458 1453 1454 1457 1458 1459 1464 1455 1456 1458 1462 1464 1463 1475 1463 1458 1459 1462 1467 1470 1475 1480 1484 1489 1493 1496 1499 1501 1503 1505 1507 1509 1511 1513 1515 1517 1519 1520 1522 1523 1524 1525 1526 1526
1455 1452 1454 1457 1456 1455 1456 1452 1454 1457 1461 1464 1460 1469 1463 1455 1460 1461 1463 1467 1472 1476 1481 1485 1489 1493 1496 1499 1501 1503 1505 1507 1509 1511 1513 1515 1517 1519 1520 1521 1522 1524 1524 1525
1451 1448 1448 1450 1450 1450 1452 1454 1455 1456 1461 1475 1463 1467 1469 1456 1459 1458 1461 1464 1469 1473 1478 1482 1487 1490 1494 1497 1499 1501 1503 1505 1507 1509 1511 1513 1515 1517 1518 1519 1521 1522 1523 1524
1454 1447 1444 1447 1451 1450 1452 1464 1477 1481 1480 1475 1457 1462 1463 1450 1449 1452 1457 1462 1466 1471 1475 1480 1484 1488 1492 1494 1497 1498 1500 1502 1504 1506 1509 1511 1513 1515 1516 1517 1519 1520 1522 1522
1459 1456 1444 1444 1449 1454 1454 1461 1479 1489 1485 1472 1457 1461 1454 1444 1446 1449 1454 1459 1464 1468 1473 1477 1481 1485 1488 1491 1494 1495 1497 1499 1502 1504 1506 1508 1510 1512 1514 1515 1517 1519 1520 1521
1455 1453 1439 1440 1443 1448 1454 1456 1454 1465 1466 1471 1464 1455 1448 1445 1447 1449 1454 1458 1462 1467 1470 1475 1479 1483 1486 1489 1491 1493 1495 1497 1500 1502 1504 1506 1507 1509 1511 1513 1515 1517 1518 1520
1450 1456 1443 1439 1441 1442 1446 1448 1456 1465 1479 1480 1466 1458 1456 1451 1450 1450 1454 1458 1463 1467 1470 1474 1476 1480 1484 1487 1490 1492 1493 1495 1497 1500 1502 1504 1505 1507 1509 1511 1513 1515 1517 1518
1449 1457 1450 1443 1446 1448 1448 1451 1454 1457 1462 1474 1477 1467 1445 1448 1449 1451 1454 1457 1462 1466 1470 1474 1476 1480 1483 1486 1488 1490 1492 1493 1495 1498 1500 1502 1503 1505 1507 1508 1511 1513 1515 1516
1451 1456 1459 1449 1441 1440 1444 1448 1453 1467 1469 1464 1469 1466 1444 1447 1448 1451 1455 1458 1462 1466 1470 1475 1477 1480 1482 1484 1486 1488 1490 1492 1494 1495 1497 1499 1501 1503 1505 1507 1509 1511 1513 1515
1457 1461 1469 1462 1453 1446 1446 1447 1450 1455 1461 1467 1472 1468 1449 1448 1450 1453 1457 1460 1463 1467 1470 1474 1477 1480 1482 1483 1484 1486 1488 1490 1492 1494 1496 1497 1499 1501 1503 1505 1507 1509 1511 1513
1460 1462 1467 1470 1461 1453 1453 1451 1449 1454 1462 1465 1464 1462 1455 1453 1454 1456 1459 1462 1465 1468 1472 1475 1477 1480 1481 1483 1484 1484 1487 1489 1491 1492 1494 1496 1498 1500 1502 1504 1505 1507 1509 1511
1460 1463 1459 1454 1448 1448 1450 1451 1450 1453 1455 1459 1457 1457 1455 1455 1456 1458 1460 1464 1467 1470 1473 1475 1477 1479 1481 1482 1483 1484 1486 1488 1489 1491 1493 1494 1496 1499 1501 1503 1504 1506 1508 1509
1461 1464 1461 1458 1451 1449 1449 1447 1448 1449 1449 1451 1452 1453 1451 1455 1457 1460 1462 1465 1468 1470 1473 1475 1476 1478 1480 1481 1482 1484 1485 1487 1488 1490 1492 1494 1495 1497 1500 1501 1503 1504 1506 1507
1462 1466 1468 1465 1454 1453 1456 1445 1445 1446 1446 1448 1453 1453 1452 1454 1457 1460 1463 1465 1468 1469 1472 1474 1476 1477 1478 1480 1481 1483 1485 1486 1487 1489 1491 1493 1495 1496 1498 1500 1502 1503 1504 1505
1463 1465 1466 1464 1464 1472 1452 1439 1440 1443 1444 1444 1447 1450 1453 1455 1458 1461 1463 1465 1468 1470 1472 1474 1475 1477 1478 1479 1481 1482 1484 1486 1487 1488 1490 1492 1494 1496 1497 1498 1500 1501 1502 1504
1456 1462 1466 1466 1469 1461 1449 1442 1442 1445 1449 1447 1448 1452 1454 1456 1458 1462 1464 1466 1468 1469 1471 1473 1475 1476 1477 1478 1480 1482 1484 1485 1486 1488 1490 1491 1492 1494 1496 1497 1498 1499 1500 1501
1453 1456 1464 1465 1470 1469 1456 1447 1445 1447 1453 1452 1452 1454 1454 1456 1459 1463 1465 1466 1468 1470 1471 1472 1474 1475 1477 1478 1480 1481 1482 1484 1486 1487 1488 1490 1491 1493 1494 1495 1496 1497 1498 1499
1458 1460 1463 1465 1467 1464 1455 1450 1449 1459 1463 1456 1455 1457 1457 1459 1461 1464 1464 1467 1468 1470 1471 1472 1474 1475 1476 1477 1478 1480 1481 1483 1485 1486 1487 1488 1490 1491 1492 1493 1494 1495 1496 1497
1461 1463 1464 1465 1468 1470 1458 1455 1458 1462 1460 1458 1459 1459 1460 1461 1462 1463 1465 1467 1469 1470 1471 1472 1473 1474 1475 1476 1477 1478 1480 1482 1483 1484 1485 1486 1487 1489 1490 1490 1492 1493 1494 1494
1458 1461 1461 1464 1467 1464 1462 1462 1462 1461 1460 1460 1460 1460 1460 1461 1463 1465 1467 1468 1469 1470 1471 1473 1473 1474 1474 1475 1476 1478 1479 1480 1481 1482 1483 1484 1485 1486 1487 1488 1489 1490 1491 1492
1458 1459 1459 1461 1461 1462 1462 1462 1462 1461 1462 1462 1461 1462 1462 1463 1463 1465 1466 1468 1468 1469 1471 1472 1472 1473 1474 1475 1476 1477 1477 1478 1479 1479 1480 1481 1483 1484 1485 1486 1487 1488 1488 1489
1462 1462 1460 1461 1462 1462 1462 1462 1462 1462 1462 1463 1462 1463 1463 1463 1463 1465 1465 1467 1468 1469 1470 1471 1471 1472 1473 1474 1475 1475 1475 1476 1477 1477 1478 1479 1480 1481 1482 1483 1484 1484 1485 1486
1460 1461 1461 1462 1463 1463 1463 1463 1462 1462 1462 1462 1463 1463 1463 1463 1463 1464 1465 1465 1466 1468 1469 1470 1470 1471 1472 1472 1473 1473 1473 1474 1475 1475 1476 1477 1478 1479 1480 1480 1481 1481 1482 1483